Spokane, WA
on Wednesday, February 13, 2013

Wednesday
Previous Day Next Day
Daily Summary
 ActualAverageRecord
Temperature
Mean Temperature °F 32°F  
Max Temperature 44°F 39°F 58°F (1898)
Min Temperature 26°F 26°F -16°F (1884)
Degree Days
Heating Degree Days 30 32  
Month to date heating degree days 413 430  
Since 1 July heating degree days 4081 4363  
Cooling Degree Days 0 0  
Month to date cooling degree days 0 0  
Year to date cooling degree days 0 0  
Moisture
Dew Point 29°F   
Average Humidity 74    
Maximum Humidity 92    
Minimum Humidity 55    
Precipitation
Precipitation 0.00 in 0.04 in 0.74 in (1976)
Month to date precipitation 0.04 0.61  
Year to date precipitation 1.67 2.40  
Snow
Snow 0.00 in 0.30 in 3.40 in (1937)
Month to date snowfall 0.3 3.5  
Since 1 July snowfall 38.5 37.0  
Snow Depth 0.00 in   
Wind
Wind Speed 12 mph   
Max Wind Speed 22 mph   
Max Gust Speed 26 mph   
Visibility 10 miles   
Events     

Key: T is trace of precipitation, MM is missing value
Source: NWS Daily Summary
Time(PST)TemperatureDew PointHumidity Pressure Visibility Wind DirectionWind SpeedGust SpeedPrecipitationEvents Conditions
12:53 AM 37.0°F 33.1°F 86% 30.17 in 10.0 miles SSW 11.5 mph - N/A   Overcast
1:53 AM 37.0°F 33.1°F 86% 30.17 in 10.0 miles SW 19.6 mph - N/A   Overcast
2:53 AM 36.0°F 33.1°F 89% 30.15 in 10.0 miles SW 18.4 mph - N/A   Partly Cloudy
3:53 AM 36.0°F 34.0°F 93% 30.16 in 10.0 miles SW 15.0 mph - N/A   Partly Cloudy
4:53 AM 36.0°F 33.1°F 89% 30.16 in 10.0 miles SW 15.0 mph - N/A   Partly Cloudy
5:53 AM 35.6°F 32.0°F 87% 30.12 in 10.0 miles SW 18.4 mph - N/A   Partly Cloudy
6:53 AM 35.1°F 30.9°F 85% 30.17 in 10.0 miles SW 16.1 mph - N/A   Mostly Cloudy
7:53 AM 36.0°F 32.0°F 86% 30.19 in 10.0 miles SW 17.3 mph - N/A   Scattered Clouds
8:53 AM 39.0°F 32.0°F 76% 30.21 in 10.0 miles WSW 13.8 mph - N/A   Mostly Cloudy
9:53 AM 41.0°F 30.9°F 67% 30.22 in 10.0 miles WSW 16.1 mph - N/A   Mostly Cloudy
10:53 AM 43.0°F 30.9°F 62% 30.23 in 10.0 miles WSW 12.7 mph - N/A   Mostly Cloudy
11:53 AM 43.0°F 28.9°F 58% 30.22 in 10.0 miles WSW 10.4 mph - N/A   Mostly Cloudy
12:53 PM 41.0°F 28.9°F 62% 30.23 in 10.0 miles WSW 10.4 mph - N/A   Mostly Cloudy
1:53 PM 42.1°F 28.0°F 58% 30.22 in 10.0 miles WSW 10.4 mph - N/A   Mostly Cloudy
2:53 PM 41.0°F 27.0°F 57% 30.24 in 10.0 miles WSW 12.7 mph - N/A   Mostly Cloudy
3:53 PM 39.0°F 27.0°F 62% 30.25 in 10.0 miles WSW 12.7 mph - N/A   Mostly Cloudy
4:53 PM 37.9°F 27.0°F 65% 30.25 in 10.0 miles WSW 11.5 mph - N/A   Mostly Cloudy
5:53 PM 37.0°F 26.1°F 65% 30.26 in 10.0 miles WSW 11.5 mph - N/A   Scattered Clouds
6:53 PM 35.1°F 26.1°F 70% 30.28 in 10.0 miles WSW 10.4 mph - N/A   Scattered Clouds
7:53 PM 33.1°F 25.0°F 72% 30.30 in 10.0 miles SW 5.8 mph - N/A   Scattered Clouds
8:53 PM 30.9°F 24.1°F 76% 30.32 in 10.0 miles WSW 3.5 mph - N/A   Partly Cloudy
9:53 PM 30.9°F 24.1°F 76% 30.33 in 10.0 miles SW 5.8 mph - N/A   Clear
10:53 PM 30.9°F 24.1°F 76% 30.34 in 10.0 miles SW 4.6 mph - N/A   Partly Cloudy
11:53 PM 27.0°F 23.0°F 85% 30.37 in 10.0 miles WSW 4.6 mph - N/A   Scattered Clouds
Moon Phase
Feb. 13 Feb. 17 Feb. 25 Mar. 04 Mar. 11
Sunrise:06:58 AM (PST) Moon Rise:08:10 AM (PST)2/13
Sunset:05:10 PM (PST) Moon Set:09:40 PM (PST)2/13

Copyright © 2014 The Weather Underground, Inc.